Racecast

MHSAA D1 Regional 4-1 Lake Erie Metro Park

Lake Erie Metro Park OFFICIAL · 5000m · Girls · Compiled · MI

77 runners from 1 division

These divisions were run separately. This is how their times compare, not how they finished — the places and scores below were never contested.

View full meet →

Team scores

Place Team Points 12345 67
1 Saline (MI) 25 1 2 4 6 12 16 17
2 Wyandotte Roosevelt (MI) 84 5 8 20 23 28 33 37
3 Woodhaven Brownstown (MI) 95 13 15 18 24 25 29 34
4 Temperance Bedford (MI) 98 7 10 19 26 36 39 41
5 Monroe (MI) 104 3 14 22 30 35 40 45
6 Dearborn Edsel Ford (MI) 172 9 21 31 54 57 58 63
7 Belleville (MI) 206 32 38 42 44 50 55 72
8 Detroit Cass Tech (MI) 229 11 48 51 59 60
9 Dearborn Fordson (MI) 237 43 46 47 49 52 67
10 Ypsilanti Lincoln (MI) 265 27 53 56 64 65 66 68
11 Detroit Martin Luther King (MI) 333 61 62 69 70 71

Not scored, fewer than five finishers: Southgate Anderson (4), Taylor Kennedy (Merged with Truman 2018) (1)

Results

Place Athlete Grade School Time Rating Points Actual race
1 Alex Leptich 11 Saline (MI) 1 18:50.7 134.4 1 1
2 Kate Carter 11 Saline (MI) 2 19:11.2 132.0 2 2
3 Marina Aguilera 9 Monroe (CA) 1 19:18.7 131.1 3 3
4 Rachel Jackson 12 Saline (MI) 3 19:38.7 128.9 4 4
5 Cara Smock 10 Wyandotte Roosevelt (MI) 1 19:42.3 128.5 5 5
6 Desi O'Brien 11 Saline (MI) 4 19:45.6 128.2 6 6
7 Kelsey Calhoun 9 Temperance Bedford (MI) 1 19:57.3 126.9 7 7
8 Megan Weschler 11 Wyandotte Roosevelt (MI) 2 19:59.2 126.7 8 8
9 Sarah Woolley 9 Dearborn Edsel Ford (MI) 1 20:02.8 126.3 9 9
10 Kate Calhoun 12 Temperance Bedford (MI) 2 20:03.1 126.3 10 10
11 Jeriesha Tucker 12 Detroit Cass Tech (MI) 1 20:29.1 123.6 11 11
12 Chelsie Noble 11 Saline (MI) 5 20:31.2 123.4 12 12
13 Ashley Dingess 11 Woodhaven Brownstown (MI) 1 20:34.7 123.1 13 13
14 Jessica Miller 11 Monroe (CA) 2 20:35.1 123.0 14 14
15 Brooke Austin 10 Woodhaven Brownstown (MI) 2 20:41.2 122.4 15 15
16 Regan Johnston 12 Saline (MI) 6 20:48.0 121.8 16 16
17 Christina Gonzalez 12 Saline (MI) 7 21:01.3 120.5 17 17
18 Emily Buttigieg 12 Woodhaven Brownstown (MI) 3 21:07.7 119.9 18 18
19 Heather Felkey 11 Temperance Bedford (MI) 3 21:13.0 119.4 19 19
20 Audrey Peters 12 Wyandotte Roosevelt (MI) 3 21:13.9 119.3 20 20
21 Stephanie Ferrante - Dearborn Edsel Ford (MI) 2 21:20.3 118.7 21 21
22 Jessica Sexton 10 Monroe (CA) 3 21:23.1 118.4 22 22
23 Mary Kearney 11 Wyandotte Roosevelt (MI) 4 21:23.7 118.4 23 23
24 Samantha Michaels 12 Woodhaven Brownstown (MI) 4 21:24.8 118.3 24 24
25 Ashley Burke 9 Woodhaven Brownstown (MI) 5 21:27.0 118.1 25 25
26 Amanda Zittleman 10 Temperance Bedford (MI) 4 21:29.3 117.9 26 26
27 Alexa Geider 10 Ypsilanti Lincoln (MI) 1 21:30.8 117.7 27 27
28 Brianna Sparks 10 Wyandotte Roosevelt (MI) 5 21:32.0 117.6 28 28
29 Kirsten Easton 10 Woodhaven Brownstown (MI) 6 21:33.7 117.4 29 29
30 Emma Heck 10 Monroe (CA) 4 21:34.3 117.4 30 30
31 Lillian Hawkins 11 Dearborn Edsel Ford (MI) 3 21:39.5 116.9 31 31
32 Johnson Kortlyn - Belleville (MI) 1 21:44.4 116.5 32 32
33 Chelsea Ball 12 Wyandotte Roosevelt (MI) 6 21:54.5 115.6 33 33
34 Aundrea Prysock 11 Woodhaven Brownstown (MI) 7 21:58.9 115.2 34 34
35 Natalie Labeau 11 Monroe (CA) 5 22:02.5 114.9 35 35
36 Anne Redd 9 Temperance Bedford (MI) 5 22:05.4 114.7 36 36
37 Shelby Loselle 10 Wyandotte Roosevelt (MI) 7 22:10.7 114.2 37 37
38 Gabrielle Boyer 12 Belleville (MI) 2 22:21.7 113.2 38 38
39 Rachel Mayer 10 Temperance Bedford (MI) 6 22:30.1 112.6 39 39
40 Richelle Gray 12 Southgate Anderson (MI) 1 22:30.8 112.5 40
41 Natalie Johnson 10 Monroe (CA) 6 22:33.0 112.3 40 41
42 Kallie Johnston 10 Temperance Bedford (MI) 7 22:33.6 112.3 41 42
43 Katie Schultz 11 Southgate Anderson (MI) 2 22:41.7 111.6 43
44 Julie Dziedzic 12 Belleville (MI) 3 22:46.1 111.2 42 44
45 Sophia Sareini 10 Dearborn Fordson (MI) 1 22:47.1 111.2 43 45
46 Erica Mozdy 11 Belleville (MI) 4 22:47.5 111.1 44 46
47 Regan Quatro 12 Monroe (CA) 7 22:51.1 110.8 45 47
48 Rayan Halwani - Dearborn Fordson (MI) 2 22:52.9 110.7 46 48
49 Lena Elreichouni 9 Dearborn Fordson (MI) 3 23:08.1 109.5 47 49
50 Danielle Stewart 10 Detroit Cass Tech (MI) 2 23:11.5 109.2 48 50
51 Amira Abihaidar - Dearborn Fordson (MI) 4 23:23.4 108.3 49 51
52 Sammy Rohrback 10 Belleville (MI) 5 23:23.9 108.2 50 52
53 Askin Lindsay 12 Detroit Cass Tech (MI) 3 23:32.1 107.6 51 53
54 Dina Mhanna 9 Dearborn Fordson (MI) 5 23:33.9 107.5 52 54
55 Samantha Pace 11 Ypsilanti Lincoln (MI) 2 23:35.3 107.4 53 55
56 Leah Boileau 11 Dearborn Edsel Ford (MI) 4 23:35.9 107.3 54 56
57 Kayla Priebe 9 Belleville (MI) 6 23:38.7 107.1 55 57
58 Erica Walters 12 Ypsilanti Lincoln (MI) 3 23:40.0 107.0 56 58
59 Jocelyn Malyn - Dearborn Edsel Ford (MI) 5 23:42.6 106.8 57 59
60 Shaina Dudek - Dearborn Edsel Ford (MI) 6 23:45.4 106.6 58 60
61 Alicia Granica 11 Southgate Anderson (MI) 3 23:47.4 106.4 61
62 Janika King 10 Detroit Cass Tech (MI) 4 24:00.5 105.5 59 62
63 Brittney Kimble 11 Detroit Cass Tech (MI) 5 24:02.9 105.3 60 63
64 Ivory Edwards 10 Detroit Martin Luther King (MI) 1 24:22.5 103.9 61 64
65 Meghan Cichanski 11 Southgate Anderson (MI) 4 24:43.8 102.4 65
66 Briaunna Buckener - Detroit Martin Luther King (MI) 2 24:49.8 102.0 62 66
67 Lindsey Ravasani-Asl 10 Dearborn Edsel Ford (MI) 7 25:28.8 63 67
68 Allison Chan 11 Ypsilanti Lincoln (MI) 4 25:40.4 98.6 64 68
69 Samantha Winters 10 Ypsilanti Lincoln (MI) 5 25:48.7 98.1 65 69
70 Geneva Chunn 11 Ypsilanti Lincoln (MI) 6 26:19.1 96.2 66 70
71 Aya Abihaidar - Dearborn Fordson (MI) 6 27:21.9 92.6 67 71
72 Holly Kline 12 Ypsilanti Lincoln (MI) 7 27:53.7 90.8 68 72
73 Danyell Proge - Detroit Martin Luther King (MI) 3 28:00.5 90.4 69 73
74 Alisha Bellamy - Detroit Martin Luther King (MI) 4 28:53.9 87.6 70 74
75 Rachael Henderson - Taylor Kennedy (Merged with Truman 2018) (MI) 1 30:56.3 81.9 75
76 Kanisha Whitelow - Detroit Martin Luther King (MI) 5 31:03.4 81.6 71 76
77 Ashley Morrow 10 Belleville (MI) 7 31:10.3 81.2 72 77